Date,TemperatureHighF,TemperatureAvgF,TemperatureLowF,DewpointHighF,DewpointAvgF,DewpointLowF,HumidityHigh,HumidityAvg,HumidityLow,PressureMaxIn,PressureMinIn,WindSpeedMaxMPH,WindSpeedAvgMPH,GustSpeedMaxMPH,PrecipitationSumIn
2013-4-1,40,31,22,-100,-100,-100,0,0,100,0.00,40.00,0,-999,0,0.00
2013-4-2,46,33,22,-100,-100,-100,0,0,100,0.00,40.00,0,-999,0,0.00
2013-4-3,54,37,24,-100,-100,-100,0,0,100,0.00,40.00,0,-999,0,0.00
2013-4-4,64,47,32,-100,-100,-100,0,0,100,0.00,40.00,0,-999,0,0.00
2013-4-5,65,48,33,-100,-100,-100,0,0,100,0.00,40.00,0,-999,0,0.00
2013-4-6,69,58,49,-100,-100,-100,0,0,100,0.00,40.00,0,-999,0,0.00
2013-4-7,73,57,38,-100,-100,-100,0,0,100,0.00,40.00,0,-999,0,0.00
2013-4-8,76,60,48,-100,-100,-100,0,0,100,0.00,40.00,0,-999,0,0.00
2013-4-9,76,63,47,-100,-100,-100,0,0,100,0.00,40.00,0,-999,0,0.00
2013-4-10,47,41,39,-100,-100,-100,0,0,100,0.00,40.00,0,-999,0,0.00
2013-4-11,41,37,33,-100,-100,-100,0,0,100,0.00,40.00,0,-999,0,0.00
2013-4-12,39,36,32,-100,-100,-100,0,0,100,0.00,40.00,0,-999,0,0.00
2013-4-13,56,42,30,-100,-100,-100,0,0,100,0.00,40.00,0,-999,0,0.00
2013-4-14,71,56,44,-100,-100,-100,0,0,100,0.00,40.00,0,-999,0,0.00
2013-4-15,54,45,40,-100,-100,-100,0,0,100,0.00,40.00,0,-999,0,0.00
2013-4-16,49,41,32,-100,-100,-100,0,0,100,0.00,40.00,0,-999,0,0.00
2013-4-17,51,44,38,-100,-100,-100,0,0,100,0.00,40.00,0,-999,0,0.00
2013-4-18,49,38,33,-100,-100,-100,0,0,100,0.00,40.00,0,-999,0,0.00
2013-4-19,43,35,29,-100,-100,-100,0,0,100,0.00,40.00,0,-999,0,0.00
2013-4-20,53,37,26,-100,-100,-100,0,0,100,0.00,40.00,0,-999,0,0.00
2013-4-21,67,53,40,-100,-100,-100,0,0,100,0.00,40.00,0,-999,0,0.00
2013-4-22,70,57,40,-100,-100,-100,0,0,100,0.00,40.00,0,-999,0,0.00
2013-4-23,40,34,30,-100,-100,-100,0,0,100,0.00,40.00,0,-999,0,0.00
2013-4-24,54,41,28,-100,-100,-100,0,0,100,0.00,40.00,0,-999,0,0.00
2013-4-25,66,49,34,-100,-100,-100,0,0,100,0.00,40.00,0,-999,0,0.00
2013-4-26,64,56,49,-100,-100,-100,0,0,100,0.00,40.00,0,-999,0,0.00
2013-4-27,64,53,42,-100,-100,-100,0,0,100,0.00,40.00,0,-999,0,0.00
2013-4-28,78,59,42,-100,-100,-100,0,0,100,0.00,40.00,0,-999,0,0.00
2013-4-29,84,66,54,-100,-100,-100,0,0,100,0.00,40.00,0,-999,0,0.00
2013-4-30,88,76,66,-100,-100,-100,0,0,100,0.00,40.00,0,-999,0,0.00